STARLINK-2585, 48382

Orbit data source: Space-Track

STARLINK-2585, 48382 is a payload satellite owned by SpaceX/Seattle (US) in LEO that was launched on Tue, 04 May 2021 UTC via an FALCON 9 launch vehicle from the Air Force Eastern Test Range (AFETR). Payload-class satellites include a variety of spacecraft equipped with specific instruments for various scientific and technological missions. These include communications satellites like Starlink; space stations such as the ISS; scientific satellites like the Hubble; Earth observation satellites from companies like Planet Labs, Umbra, and HawkEye 360; GPS; miniature CubeSats for education and research; and military/defense satellites.

Loading next visibility...
Identifier
48382, 2021-038AF
Orbit
LEO
Country
Flag of USUS
Related business
Manufacturer
SpaceX/Seattle
Mission
Operational Commercial Communications
Bus & Motor
STARLINK, Unknown motor
Mass
260 kg wet, ~248 kg dry
Launch date (UTC)
2021-05-04 (5 years ago)
Launch vehicle
FALCON 9
Launch site
Air Force Eastern Test Range (AFETR)
Object type
Payload
Rocket body
Debris
Shape & HBR
Box + 1 Pan, 10.1 m
Radar Cross Section
13.562 m², Large (>1 m²)

Expand to show TLE details & history
Last TLE update: 2 days ago

TLE from 2 days ago
0 STARLINK-2585
1 48382U 21038AF  26171.40415646  .00000459  00000-0  26563-4 0  9990
2 48382  53.1601 229.9406 0001140  75.5066 284.6062 15.31696685282965
Epoch: 2026-06-20T09:41Z
TLE epoch observation values (Epoch: 2026-06-20T09:41:59.118Z)
Latitude
0.00001°
Longitude
175.82501°
Altitude
471.453 km
Speed
7.632 km/s
True Right ascension
15h 19m 45s
True Declination
0° 00' 00"
Sunlit
Object was in full shadow at epoch
Visualization orbit readout
Latitude
Unknown
Longitude
Unknown
Altitude
Unknown
Speed
Unknown
Apparent Right ascension
Unknown
Apparent Declination
Unknown
Sunlit
N/A
Visualization observer readout
Local Sidereal Time
21:40:02
Azimuth
Unknown
Elevation
Unknown
Doppler factor
Unknown
Orbital elements
Apogee altitude
471.787 km
Perigee altitude
470.226 km
Semi-major axis
6,849.143 km
Eccentricity
0.00011
Inclination
53.1601°
RAAN
229.9406°
Arg. of periapsis
75.5066°
True anomaly
284.59356°
Mean anomaly
284.6062°
Eccentric anomaly
284.59988°
Mean motion
3.82903 °/min
Orbital period
94.02 mins
BSTAR
0.000026563
Loading maneuver chart data...
Computing Atmospheric mass density...

Documentation

Showing up to 5 results
|